Home   Weather   Santa Fe   Past weeks
Flag for USA

Past Weather in Santa Fe, New Mexico, USA — Yesterday and Last 2 Weeks

Now
29 °F

Clear.


Feels Like: 23 °F
Forecast: 35 / 20 °F
Wind: 6 mph from Northwest

Location: Santa Fe County Municipal Airport

Current Time: Jan 23, 2019 at 7:21:48 pm

Latest Report: Jan 23, 2019 at 5:53 pm


Visibility: 10 mi

Pressure: 30.10 "Hg (23.01 "Hg at 2132m altitude)

Humidity: 64%

Dew Point: 18 °F

Location of Santa FeLocation

Past Weather in Santa Fe — Graph

°F

Santa Fe Temperature Yesterday

Maximum temperature yesterday: 30 °F (at 12:53 am)
Minimum temperature yesterday: 25 °F (at 6:53 am)
Average temperature yesterday: 28 °F

High & Low Weather Summary for the Past Weeks

 TemperatureHumidityPressure
High53 °F (Jan 21, 2:53 pm)100% (Jan 10, 11:34 pm)30.51 "Hg (Jan 10, 11:34 pm)
Low18 °F (Jan 9, 4:53 am)31% (Jan 21, 3:53 pm)29.46 "Hg (Jan 21, 3:53 pm)
Average32 °F77%30.12 "Hg
* Reported Jan 8 5:53 pm — Jan 23 5:53 pm, Santa Fe. Weather by CustomWeather, © 2019

Note: Actual official high and low records may vary slightly from our data, if they occured in-between our weather recording intervals... More about our weather records

Advertising

Santa Fe Weather History for the Previous 24 Hours

Scroll right to see more
 ConditionsComfort  
Time TempWeatherWind HumidityBarometerVisibility
5:53 pm
Wed, Jan 23
29 °FClear.6 mph64%30.10 "Hg10 mi
4:53 pm36 °FSunny.7 mph42%30.05 "Hg10 mi
3:53 pm36 °FSunny.5 mph42%30.06 "Hg10 mi
2:53 pm34 °FSunny.3 mph48%30.08 "Hg10 mi
1:53 pm33 °FSunny.9 mph49%30.13 "Hg10 mi
12:53 pm34 °FSunny.8 mph40%30.14 "Hg10 mi
11:53 am32 °FSunny.13 mph40%30.19 "Hg10 mi
10:53 am29 °FSunny.13 mph47%30.22 "Hg10 mi
9:53 am27 °FSunny.17 mph51%30.24 "Hg10 mi
8:53 am24 °FSunny.14 mph57%30.27 "Hg10 mi
7:53 am21 °FSunny.12 mph62%30.24 "Hg10 mi
6:53 am20 °FClear.16 mph71%30.23 "Hg10 mi
5:53 am21 °FClear.15 mph71%30.20 "Hg10 mi
4:53 am20 °FClear.17 mph78%30.17 "Hg10 mi
3:53 am19 °FClear.5 mph81%30.18 "Hg10 mi
2:53 am21 °FClear.5 mph81%30.18 "Hg10 mi
1:53 am21 °FClear.6 mph92%30.19 "Hg10 mi
12:53 am26 °FClear.No wind81%30.17 "Hg10 mi
11:53 pm
Tue, Jan 22
25 °FOvercast.6 mph92%30.20 "Hg10 mi
10:53 pm26 °FOvercast.No wind88%30.17 "Hg10 mi
9:53 pm27 °FOvercast.5 mph85%30.17 "Hg10 mi
8:53 pm26 °FOvercast.5 mph88%30.18 "Hg10 mi
7:53 pm26 °FOvercast.7 mph88%30.18 "Hg10 mi
Weather by CustomWeather, © 2019

See weather overview